owner,sensor,date,latitude,longitude,air_temperature,qcFlag 
WAVCIS,ioos:station:WAVCIS:CSI15:1,2010-02-01T00:00:00Z,28.8332,-90.8320,10.95,11111222 
WAVCIS,ioos:station:WAVCIS:CSI15:1,2010-02-01T01:00:00Z,28.8332,-90.8320,11.59,11111222 
WAVCIS,ioos:station:WAVCIS:CSI15:1,2010-02-01T02:00:00Z,28.8332,-90.8320,11.99,11111222 
WAVCIS,ioos:station:WAVCIS:CSI15:1,2010-02-01T03:00:00Z,28.8332,-90.8320,11.89,11111222 
WAVCIS,ioos:station:WAVCIS:CSI15:1,2010-02-01T04:00:00Z,28.8332,-90.8320,12.04,11111222 
WAVCIS,ioos:station:WAVCIS:CSI15:1,2010-02-01T05:00:00Z,28.8332,-90.8320,12.59,11111222 
WAVCIS,ioos:station:WAVCIS:CSI15:1,2010-02-01T06:00:00Z,28.8332,-90.8320,13.27,11111222 
WAVCIS,ioos:station:WAVCIS:CSI15:1,2010-02-01T07:00:00Z,28.8332,-90.8320,13.27,11111222 
WAVCIS,ioos:station:WAVCIS:CSI15:1,2010-02-01T08:00:00Z,28.8332,-90.8320,13.71,11111222 
WAVCIS,ioos:station:WAVCIS:CSI15:1,2010-02-01T09:00:00Z,28.8332,-90.8320,13.47,11111222 
WAVCIS,ioos:station:WAVCIS:CSI15:1,2010-02-01T10:00:00Z,28.8332,-90.8320,13.54,11111222 
WAVCIS,ioos:station:WAVCIS:CSI15:1,2010-02-01T11:00:00Z,28.8332,-90.8320,13.75,11111222 
WAVCIS,ioos:station:WAVCIS:CSI15:1,2010-02-01T12:00:00Z,28.8332,-90.8320,13.68,11111222 
WAVCIS,ioos:station:WAVCIS:CSI15:1,2010-02-01T13:00:00Z,28.8332,-90.8320,13.55,11111222 
WAVCIS,ioos:station:WAVCIS:CSI15:1,2010-02-01T14:00:00Z,28.8332,-90.8320,13.65,11111222 
WAVCIS,ioos:station:WAVCIS:CSI15:1,2010-02-01T15:00:00Z,28.8332,-90.8320,13.97,11111222 
WAVCIS,ioos:station:WAVCIS:CSI15:1,2010-02-01T16:00:00Z,28.8332,-90.8320,14.56,11111222 
WAVCIS,ioos:station:WAVCIS:CSI15:1,2010-02-01T17:00:00Z,28.8332,-90.8320,15.06,11111222 
WAVCIS,ioos:station:WAVCIS:CSI15:1,2010-02-01T18:00:00Z,28.8332,-90.8320,15.82,11111222 
WAVCIS,ioos:station:WAVCIS:CSI15:1,2010-02-01T19:00:00Z,28.8332,-90.8320,16.11,11111222 
WAVCIS,ioos:station:WAVCIS:CSI15:1,2010-02-01T20:00:00Z,28.8332,-90.8320,16.14,11111222 
WAVCIS,ioos:station:WAVCIS:CSI15:1,2010-02-01T21:00:00Z,28.8332,-90.8320,16.59,11111222 
WAVCIS,ioos:station:WAVCIS:CSI15:1,2010-02-01T22:00:00Z,28.8332,-90.8320,16.61,11111222 
WAVCIS,ioos:station:WAVCIS:CSI15:1,2010-02-01T23:00:00Z,28.8332,-90.8320,16.62,11111222 
WAVCIS,ioos:station:WAVCIS:CSI15:1,2010-02-02T00:00:00Z,28.8332,-90.8320,16.42,11111222 
WAVCIS,ioos:station:WAVCIS:CSI15:1,2010-02-02T01:00:00Z,28.8332,-90.8320,16.23,11111222 
WAVCIS,ioos:station:WAVCIS:CSI15:1,2010-02-02T02:00:00Z,28.8332,-90.8320,16.29,11111222 
WAVCIS,ioos:station:WAVCIS:CSI15:1,2010-02-02T03:00:00Z,28.8332,-90.8320,16.75,11111222 
WAVCIS,ioos:station:WAVCIS:CSI15:1,2010-02-02T04:00:00Z,28.8332,-90.8320,16.83,11111222 
WAVCIS,ioos:station:WAVCIS:CSI15:1,2010-02-02T05:00:00Z,28.8332,-90.8320,15.9,11111222 
WAVCIS,ioos:station:WAVCIS:CSI15:1,2010-02-02T06:00:00Z,28.8332,-90.8320,16.29,11111222 
WAVCIS,ioos:station:WAVCIS:CSI15:1,2010-02-02T07:00:00Z,28.8332,-90.8320,16.76,11111222 
WAVCIS,ioos:station:WAVCIS:CSI15:1,2010-02-02T08:00:00Z,28.8332,-90.8320,16.63,11111222 
WAVCIS,ioos:station:WAVCIS:CSI15:1,2010-02-02T09:00:00Z,28.8332,-90.8320,16.76,11111222 
WAVCIS,ioos:station:WAVCIS:CSI15:1,2010-02-02T10:00:00Z,28.8332,-90.8320,16.81,11111222 
WAVCIS,ioos:station:WAVCIS:CSI15:1,2010-02-02T11:00:00Z,28.8332,-90.8320,16.83,11111222 
WAVCIS,ioos:station:WAVCIS:CSI15:1,2010-02-02T12:00:00Z,28.8332,-90.8320,16.82,11111222 
WAVCIS,ioos:station:WAVCIS:CSI15:1,2010-02-02T13:00:00Z,28.8332,-90.8320,16.52,11111222 
WAVCIS,ioos:station:WAVCIS:CSI15:1,2010-02-02T14:00:00Z,28.8332,-90.8320,16.39,11111222 
WAVCIS,ioos:station:WAVCIS:CSI15:1,2010-02-02T15:00:00Z,28.8332,-90.8320,16.18,11111222 
WAVCIS,ioos:station:WAVCIS:CSI15:1,2010-02-02T16:00:00Z,28.8332,-90.8320,16.0,11111222 
WAVCIS,ioos:station:WAVCIS:CSI15:1,2010-02-02T17:00:00Z,28.8332,-90.8320,16.04,11111222 
WAVCIS,ioos:station:WAVCIS:CSI15:1,2010-02-02T18:00:00Z,28.8332,-90.8320,16.61,11111222 
WAVCIS,ioos:station:WAVCIS:CSI15:1,2010-02-02T19:00:00Z,28.8332,-90.8320,16.97,11111222 
WAVCIS,ioos:station:WAVCIS:CSI15:1,2010-02-02T20:00:00Z,28.8332,-90.8320,17.57,11111222 
WAVCIS,ioos:station:WAVCIS:CSI15:1,2010-02-02T21:00:00Z,28.8332,-90.8320,18.25,11111222 
WAVCIS,ioos:station:WAVCIS:CSI15:1,2010-02-02T22:00:00Z,28.8332,-90.8320,19.28,11111222 
WAVCIS,ioos:station:WAVCIS:CSI15:1,2010-02-02T23:00:00Z,28.8332,-90.8320,19.19,11111222 
WAVCIS,ioos:station:WAVCIS:CSI15:1,2010-02-03T00:00:00Z,28.8332,-90.8320,18.74,11111222 
WAVCIS,ioos:station:WAVCIS:CSI15:1,2010-02-03T01:00:00Z,28.8332,-90.8320,22.35,11111222 
WAVCIS,ioos:station:WAVCIS:CSI15:1,2010-02-03T02:00:00Z,28.8332,-90.8320,18.52,11111222 
WAVCIS,ioos:station:WAVCIS:CSI15:1,2010-02-03T03:00:00Z,28.8332,-90.8320,19.85,11111222 
WAVCIS,ioos:station:WAVCIS:CSI15:1,2010-02-03T04:00:00Z,28.8332,-90.8320,18.48,11111222 
WAVCIS,ioos:station:WAVCIS:CSI15:1,2010-02-03T05:00:00Z,28.8332,-90.8320,18.2,11111222 
WAVCIS,ioos:station:WAVCIS:CSI15:1,2010-02-03T06:00:00Z,28.8332,-90.8320,17.34,11111222 
WAVCIS,ioos:station:WAVCIS:CSI15:1,2010-02-03T07:00:00Z,28.8332,-90.8320,16.97,11111222 
WAVCIS,ioos:station:WAVCIS:CSI15:1,2010-02-03T08:00:00Z,28.8332,-90.8320,16.49,11111222 
WAVCIS,ioos:station:WAVCIS:CSI15:1,2010-02-03T09:00:00Z,28.8332,-90.8320,16.16,11111222 
WAVCIS,ioos:station:WAVCIS:CSI15:1,2010-02-03T10:00:00Z,28.8332,-90.8320,15.87,11111222 
WAVCIS,ioos:station:WAVCIS:CSI15:1,2010-02-03T11:00:00Z,28.8332,-90.8320,16.0,11111222 
WAVCIS,ioos:station:WAVCIS:CSI15:1,2010-02-03T12:00:00Z,28.8332,-90.8320,16.06,11111222 
WAVCIS,ioos:station:WAVCIS:CSI15:1,2010-02-03T13:00:00Z,28.8332,-90.8320,16.01,11111222 
WAVCIS,ioos:station:WAVCIS:CSI15:1,2010-02-03T14:00:00Z,28.8332,-90.8320,15.74,11111222 
WAVCIS,ioos:station:WAVCIS:CSI15:1,2010-02-03T15:00:00Z,28.8332,-90.8320,15.43,11111222 
WAVCIS,ioos:station:WAVCIS:CSI15:1,2010-02-03T16:00:00Z,28.8332,-90.8320,15.55,11111222 
WAVCIS,ioos:station:WAVCIS:CSI15:1,2010-02-03T17:00:00Z,28.8332,-90.8320,15.95,11111222 
WAVCIS,ioos:station:WAVCIS:CSI15:1,2010-02-03T18:00:00Z,28.8332,-90.8320,16.31,11111222 
WAVCIS,ioos:station:WAVCIS:CSI15:1,2010-02-03T19:00:00Z,28.8332,-90.8320,16.56,11111222 
WAVCIS,ioos:station:WAVCIS:CSI15:1,2010-02-03T20:00:00Z,28.8332,-90.8320,16.39,11111222 
WAVCIS,ioos:station:WAVCIS:CSI15:1,2010-02-03T21:00:00Z,28.8332,-90.8320,16.56,11111222 
WAVCIS,ioos:station:WAVCIS:CSI15:1,2010-02-03T22:00:00Z,28.8332,-90.8320,16.91,11111222 
WAVCIS,ioos:station:WAVCIS:CSI15:1,2010-02-03T23:00:00Z,28.8332,-90.8320,17.43,11111222 
WAVCIS,ioos:station:WAVCIS:CSI15:1,2010-02-04T00:00:00Z,28.8332,-90.8320,17.37,11111222 
WAVCIS,ioos:station:WAVCIS:CSI15:1,2010-02-04T01:00:00Z,28.8332,-90.8320,17.73,11111222 
WAVCIS,ioos:station:WAVCIS:CSI15:1,2010-02-04T02:00:00Z,28.8332,-90.8320,17.92,11111222 
WAVCIS,ioos:station:WAVCIS:CSI15:1,2010-02-04T03:00:00Z,28.8332,-90.8320,17.44,11111222 
WAVCIS,ioos:station:WAVCIS:CSI15:1,2010-02-04T04:00:00Z,28.8332,-90.8320,17.05,11111222 
WAVCIS,ioos:station:WAVCIS:CSI15:1,2010-02-04T05:00:00Z,28.8332,-90.8320,17.67,11111222 
WAVCIS,ioos:station:WAVCIS:CSI15:1,2010-02-04T06:00:00Z,28.8332,-90.8320,18.57,11111222 
WAVCIS,ioos:station:WAVCIS:CSI15:1,2010-02-04T07:00:00Z,28.8332,-90.8320,18.46,11111222 
WAVCIS,ioos:station:WAVCIS:CSI15:1,2010-02-04T08:00:00Z,28.8332,-90.8320,18.24,11111222 
WAVCIS,ioos:station:WAVCIS:CSI15:1,2010-02-04T09:00:00Z,28.8332,-90.8320,18.26,11111222 
WAVCIS,ioos:station:WAVCIS:CSI15:1,2010-02-04T10:00:00Z,28.8332,-90.8320,18.17,11111222 
WAVCIS,ioos:station:WAVCIS:CSI15:1,2010-02-04T11:00:00Z,28.8332,-90.8320,18.13,11111222 
WAVCIS,ioos:station:WAVCIS:CSI15:1,2010-02-04T12:00:00Z,28.8332,-90.8320,18.85,11111222 
WAVCIS,ioos:station:WAVCIS:CSI15:1,2010-02-04T13:00:00Z,28.8332,-90.8320,20.0,11111222 
WAVCIS,ioos:station:WAVCIS:CSI15:1,2010-02-04T14:00:00Z,28.8332,-90.8320,20.27,11111222 
WAVCIS,ioos:station:WAVCIS:CSI15:1,2010-02-04T15:00:00Z,28.8332,-90.8320,19.45,11111222 
WAVCIS,ioos:station:WAVCIS:CSI15:1,2010-02-04T16:00:00Z,28.8332,-90.8320,16.48,11111222 
WAVCIS,ioos:station:WAVCIS:CSI15:1,2010-02-04T17:00:00Z,28.8332,-90.8320,16.34,11111222 
WAVCIS,ioos:station:WAVCIS:CSI15:1,2010-02-04T18:00:00Z,28.8332,-90.8320,17.45,11111222 
WAVCIS,ioos:station:WAVCIS:CSI15:1,2010-02-04T19:00:00Z,28.8332,-90.8320,17.83,11111222 
WAVCIS,ioos:station:WAVCIS:CSI15:1,2010-02-04T20:00:00Z,28.8332,-90.8320,18.21,11111222 
WAVCIS,ioos:station:WAVCIS:CSI15:1,2010-02-04T21:00:00Z,28.8332,-90.8320,20.02,11111222 
WAVCIS,ioos:station:WAVCIS:CSI15:1,2010-02-04T22:00:00Z,28.8332,-90.8320,21.07,11111222 
WAVCIS,ioos:station:WAVCIS:CSI15:1,2010-02-04T23:00:00Z,28.8332,-90.8320,21.23,11111222 
WAVCIS,ioos:station:WAVCIS:CSI15:1,2010-02-05T00:00:00Z,28.8332,-90.8320,21.54,11111222 
WAVCIS,ioos:station:WAVCIS:CSI15:1,2010-02-05T01:00:00Z,28.8332,-90.8320,21.04,11111222 
WAVCIS,ioos:station:WAVCIS:CSI15:1,2010-02-05T02:00:00Z,28.8332,-90.8320,20.39,11111222 
WAVCIS,ioos:station:WAVCIS:CSI15:1,2010-02-05T03:00:00Z,28.8332,-90.8320,17.96,11111222 
WAVCIS,ioos:station:WAVCIS:CSI15:1,2010-02-05T04:00:00Z,28.8332,-90.8320,21.75,11111222 
WAVCIS,ioos:station:WAVCIS:CSI15:1,2010-02-05T05:00:00Z,28.8332,-90.8320,18.19,11111222 
WAVCIS,ioos:station:WAVCIS:CSI15:1,2010-02-05T06:00:00Z,28.8332,-90.8320,18.21,11111222 
WAVCIS,ioos:station:WAVCIS:CSI15:1,2010-02-05T07:00:00Z,28.8332,-90.8320,17.97,11111222 
WAVCIS,ioos:station:WAVCIS:CSI15:1,2010-02-05T08:00:00Z,28.8332,-90.8320,17.95,11111222 
WAVCIS,ioos:station:WAVCIS:CSI15:1,2010-02-05T09:00:00Z,28.8332,-90.8320,17.75,11111222 
WAVCIS,ioos:station:WAVCIS:CSI15:1,2010-02-05T10:00:00Z,28.8332,-90.8320,17.32,11111222 
WAVCIS,ioos:station:WAVCIS:CSI15:1,2010-02-05T11:00:00Z,28.8332,-90.8320,17.32,11111222 
WAVCIS,ioos:station:WAVCIS:CSI15:1,2010-02-05T12:00:00Z,28.8332,-90.8320,17.54,11111222 
WAVCIS,ioos:station:WAVCIS:CSI15:1,2010-02-05T13:00:00Z,28.8332,-90.8320,18.05,11111222 
WAVCIS,ioos:station:WAVCIS:CSI15:1,2010-02-05T14:00:00Z,28.8332,-90.8320,16.65,11111222 
WAVCIS,ioos:station:WAVCIS:CSI15:1,2010-02-05T15:00:00Z,28.8332,-90.8320,16.83,11111222 
WAVCIS,ioos:station:WAVCIS:CSI15:1,2010-02-05T16:00:00Z,28.8332,-90.8320,16.88,11111222 
WAVCIS,ioos:station:WAVCIS:CSI15:1,2010-02-05T17:00:00Z,28.8332,-90.8320,16.7,11111222 
WAVCIS,ioos:station:WAVCIS:CSI15:1,2010-02-05T18:00:00Z,28.8332,-90.8320,16.39,11111222 
WAVCIS,ioos:station:WAVCIS:CSI15:1,2010-02-05T19:00:00Z,28.8332,-90.8320,16.68,11111222 
WAVCIS,ioos:station:WAVCIS:CSI15:1,2010-02-05T20:00:00Z,28.8332,-90.8320,16.73,11111222 
WAVCIS,ioos:station:WAVCIS:CSI15:1,2010-02-05T21:00:00Z,28.8332,-90.8320,16.72,11111222 
WAVCIS,ioos:station:WAVCIS:CSI15:1,2010-02-05T22:00:00Z,28.8332,-90.8320,15.88,11111222 
WAVCIS,ioos:station:WAVCIS:CSI15:1,2010-02-05T23:00:00Z,28.8332,-90.8320,16.19,11111222 
WAVCIS,ioos:station:WAVCIS:CSI15:1,2010-02-06T00:00:00Z,28.8332,-90.8320,15.2,11111222 
WAVCIS,ioos:station:WAVCIS:CSI15:1,2010-02-06T01:00:00Z,28.8332,-90.8320,15.15,11111222 
WAVCIS,ioos:station:WAVCIS:CSI15:1,2010-02-06T02:00:00Z,28.8332,-90.8320,15.2,11111222 
WAVCIS,ioos:station:WAVCIS:CSI15:1,2010-02-06T03:00:00Z,28.8332,-90.8320,15.64,11111222 
WAVCIS,ioos:station:WAVCIS:CSI15:1,2010-02-06T04:00:00Z,28.8332,-90.8320,15.35,11111222 
WAVCIS,ioos:station:WAVCIS:CSI15:1,2010-02-06T05:00:00Z,28.8332,-90.8320,15.18,11111222 
WAVCIS,ioos:station:WAVCIS:CSI15:1,2010-02-06T06:00:00Z,28.8332,-90.8320,14.7,11111222 
WAVCIS,ioos:station:WAVCIS:CSI15:1,2010-02-06T07:00:00Z,28.8332,-90.8320,14.61,11111222 
WAVCIS,ioos:station:WAVCIS:CSI15:1,2010-02-06T08:00:00Z,28.8332,-90.8320,14.57,11111222 
WAVCIS,ioos:station:WAVCIS:CSI15:1,2010-02-06T09:00:00Z,28.8332,-90.8320,14.95,11111222 
WAVCIS,ioos:station:WAVCIS:CSI15:1,2010-02-06T10:00:00Z,28.8332,-90.8320,14.96,11111222 
WAVCIS,ioos:station:WAVCIS:CSI15:1,2010-02-06T11:00:00Z,28.8332,-90.8320,15.27,11111222 
WAVCIS,ioos:station:WAVCIS:CSI15:1,2010-02-06T12:00:00Z,28.8332,-90.8320,15.24,11111222 
WAVCIS,ioos:station:WAVCIS:CSI15:1,2010-02-06T13:00:00Z,28.8332,-90.8320,15.36,11111222 
WAVCIS,ioos:station:WAVCIS:CSI15:1,2010-02-06T14:00:00Z,28.8332,-90.8320,14.64,11111222 
WAVCIS,ioos:station:WAVCIS:CSI15:1,2010-02-06T15:00:00Z,28.8332,-90.8320,14.12,11111222 
WAVCIS,ioos:station:WAVCIS:CSI15:1,2010-02-06T16:00:00Z,28.8332,-90.8320,13.51,11111222 
WAVCIS,ioos:station:WAVCIS:CSI15:1,2010-02-06T17:00:00Z,28.8332,-90.8320,13.5,11111222 
WAVCIS,ioos:station:WAVCIS:CSI15:1,2010-02-06T18:00:00Z,28.8332,-90.8320,13.75,11111222 
WAVCIS,ioos:station:WAVCIS:CSI15:1,2010-02-06T19:00:00Z,28.8332,-90.8320,13.78,11111222 
WAVCIS,ioos:station:WAVCIS:CSI15:1,2010-02-06T20:00:00Z,28.8332,-90.8320,13.73,11111222 
WAVCIS,ioos:station:WAVCIS:CSI15:1,2010-02-06T21:00:00Z,28.8332,-90.8320,13.84,11111222 
WAVCIS,ioos:station:WAVCIS:CSI15:1,2010-02-06T22:00:00Z,28.8332,-90.8320,14.34,11111222 
WAVCIS,ioos:station:WAVCIS:CSI15:1,2010-02-06T23:00:00Z,28.8332,-90.8320,14.99,11111222 
WAVCIS,ioos:station:WAVCIS:CSI15:1,2010-02-07T00:00:00Z,28.8332,-90.8320,15.24,11111222 
WAVCIS,ioos:station:WAVCIS:CSI15:1,2010-02-07T01:00:00Z,28.8332,-90.8320,15.17,11111222 
WAVCIS,ioos:station:WAVCIS:CSI15:1,2010-02-07T02:00:00Z,28.8332,-90.8320,13.35,11111222 
WAVCIS,ioos:station:WAVCIS:CSI15:1,2010-02-07T03:00:00Z,28.8332,-90.8320,12.17,11111222 
WAVCIS,ioos:station:WAVCIS:CSI15:1,2010-02-07T04:00:00Z,28.8332,-90.8320,11.84,11111222 
WAVCIS,ioos:station:WAVCIS:CSI15:1,2010-02-07T05:00:00Z,28.8332,-90.8320,11.58,11111222 
WAVCIS,ioos:station:WAVCIS:CSI15:1,2010-02-07T06:00:00Z,28.8332,-90.8320,11.04,11111222 
WAVCIS,ioos:station:WAVCIS:CSI15:1,2010-02-07T07:00:00Z,28.8332,-90.8320,10.82,11111222 
WAVCIS,ioos:station:WAVCIS:CSI15:1,2010-02-07T08:00:00Z,28.8332,-90.8320,10.57,11111222 
WAVCIS,ioos:station:WAVCIS:CSI15:1,2010-02-07T09:00:00Z,28.8332,-90.8320,10.36,11111222 
WAVCIS,ioos:station:WAVCIS:CSI15:1,2010-02-07T10:00:00Z,28.8332,-90.8320,10.37,11111222 
WAVCIS,ioos:station:WAVCIS:CSI15:1,2010-02-07T11:00:00Z,28.8332,-90.8320,10.17,11111222 
WAVCIS,ioos:station:WAVCIS:CSI15:1,2010-02-07T12:00:00Z,28.8332,-90.8320,10.26,11111222 
WAVCIS,ioos:station:WAVCIS:CSI15:1,2010-02-07T13:00:00Z,28.8332,-90.8320,10.48,11111222 
WAVCIS,ioos:station:WAVCIS:CSI15:1,2010-02-07T14:00:00Z,28.8332,-90.8320,10.61,11111222 
WAVCIS,ioos:station:WAVCIS:CSI15:1,2010-02-07T15:00:00Z,28.8332,-90.8320,10.73,11111222 
WAVCIS,ioos:station:WAVCIS:CSI15:1,2010-02-07T16:00:00Z,28.8332,-90.8320,10.7,11111222 
WAVCIS,ioos:station:WAVCIS:CSI15:1,2010-02-07T17:00:00Z,28.8332,-90.8320,10.89,11111222 
WAVCIS,ioos:station:WAVCIS:CSI15:1,2010-02-07T18:00:00Z,28.8332,-90.8320,11.17,11111222 
WAVCIS,ioos:station:WAVCIS:CSI15:1,2010-02-07T19:00:00Z,28.8332,-90.8320,11.38,11111222 
WAVCIS,ioos:station:WAVCIS:CSI15:1,2010-02-07T20:00:00Z,28.8332,-90.8320,11.53,11111222 
WAVCIS,ioos:station:WAVCIS:CSI15:1,2010-02-07T21:00:00Z,28.8332,-90.8320,12.55,11111222 
WAVCIS,ioos:station:WAVCIS:CSI15:1,2010-02-07T22:00:00Z,28.8332,-90.8320,13.78,11111222 
WAVCIS,ioos:station:WAVCIS:CSI15:1,2010-02-07T23:00:00Z,28.8332,-90.8320,13.88,11111222 
WAVCIS,ioos:station:WAVCIS:CSI15:1,2010-02-08T00:00:00Z,28.8332,-90.8320,12.52,11111222 
WAVCIS,ioos:station:WAVCIS:CSI15:1,2010-02-08T01:00:00Z,28.8332,-90.8320,12.86,11111222 
WAVCIS,ioos:station:WAVCIS:CSI15:1,2010-02-08T02:00:00Z,28.8332,-90.8320,13.01,11111222 
WAVCIS,ioos:station:WAVCIS:CSI15:1,2010-02-08T03:00:00Z,28.8332,-90.8320,13.22,11111222 
WAVCIS,ioos:station:WAVCIS:CSI15:1,2010-02-08T04:00:00Z,28.8332,-90.8320,13.58,11111222 
WAVCIS,ioos:station:WAVCIS:CSI15:1,2010-02-08T05:00:00Z,28.8332,-90.8320,13.86,11111222 
WAVCIS,ioos:station:WAVCIS:CSI15:1,2010-02-08T06:00:00Z,28.8332,-90.8320,13.64,11111222 
WAVCIS,ioos:station:WAVCIS:CSI15:1,2010-02-08T07:00:00Z,28.8332,-90.8320,13.94,11111222 
WAVCIS,ioos:station:WAVCIS:CSI15:1,2010-02-08T08:00:00Z,28.8332,-90.8320,14.25,11111222 
WAVCIS,ioos:station:WAVCIS:CSI15:1,2010-02-08T09:00:00Z,28.8332,-90.8320,14.58,11111222 
WAVCIS,ioos:station:WAVCIS:CSI15:1,2010-02-08T10:00:00Z,28.8332,-90.8320,14.77,11111222 
WAVCIS,ioos:station:WAVCIS:CSI15:1,2010-02-08T11:00:00Z,28.8332,-90.8320,14.92,11111222 
WAVCIS,ioos:station:WAVCIS:CSI15:1,2010-02-08T12:00:00Z,28.8332,-90.8320,15.14,11111222 
WAVCIS,ioos:station:WAVCIS:CSI15:1,2010-02-08T13:00:00Z,28.8332,-90.8320,15.74,11111222 
WAVCIS,ioos:station:WAVCIS:CSI15:1,2010-02-08T14:00:00Z,28.8332,-90.8320,16.72,11111222 
WAVCIS,ioos:station:WAVCIS:CSI15:1,2010-02-08T15:00:00Z,28.8332,-90.8320,17.45,11111222 
WAVCIS,ioos:station:WAVCIS:CSI15:1,2010-02-08T16:00:00Z,28.8332,-90.8320,18.12,11111222 
WAVCIS,ioos:station:WAVCIS:CSI15:1,2010-02-08T17:00:00Z,28.8332,-90.8320,18.91,11111222 
WAVCIS,ioos:station:WAVCIS:CSI15:1,2010-02-08T18:00:00Z,28.8332,-90.8320,19.53,11111222 
WAVCIS,ioos:station:WAVCIS:CSI15:1,2010-02-08T19:00:00Z,28.8332,-90.8320,20.77,11111222 
WAVCIS,ioos:station:WAVCIS:CSI15:1,2010-02-08T20:00:00Z,28.8332,-90.8320,21.23,11111222 
WAVCIS,ioos:station:WAVCIS:CSI15:1,2010-02-08T21:00:00Z,28.8332,-90.8320,21.82,11111222 
WAVCIS,ioos:station:WAVCIS:CSI15:1,2010-02-08T22:00:00Z,28.8332,-90.8320,20.43,11111222 
WAVCIS,ioos:station:WAVCIS:CSI15:1,2010-02-08T23:00:00Z,28.8332,-90.8320,20.98,11111222 
WAVCIS,ioos:station:WAVCIS:CSI15:1,2010-02-09T00:00:00Z,28.8332,-90.8320,21.34,11111222 
WAVCIS,ioos:station:WAVCIS:CSI15:1,2010-02-09T01:00:00Z,28.8332,-90.8320,22.19,11111222 
WAVCIS,ioos:station:WAVCIS:CSI15:1,2010-02-09T02:00:00Z,28.8332,-90.8320,22.61,11111222 
WAVCIS,ioos:station:WAVCIS:CSI15:1,2010-02-09T03:00:00Z,28.8332,-90.8320,21.27,11111222 
WAVCIS,ioos:station:WAVCIS:CSI15:1,2010-02-09T04:00:00Z,28.8332,-90.8320,20.85,11111222 
WAVCIS,ioos:station:WAVCIS:CSI15:1,2010-02-09T05:00:00Z,28.8332,-90.8320,20.53,11111222 
WAVCIS,ioos:station:WAVCIS:CSI15:1,2010-02-09T06:00:00Z,28.8332,-90.8320,20.32,11111222 
WAVCIS,ioos:station:WAVCIS:CSI15:1,2010-02-09T07:00:00Z,28.8332,-90.8320,19.7,11111222 
WAVCIS,ioos:station:WAVCIS:CSI15:1,2010-02-09T08:00:00Z,28.8332,-90.8320,19.11,11111222 
WAVCIS,ioos:station:WAVCIS:CSI15:1,2010-02-09T09:00:00Z,28.8332,-90.8320,19.88,11111222 
WAVCIS,ioos:station:WAVCIS:CSI15:1,2010-02-09T10:00:00Z,28.8332,-90.8320,21.0,11111222 
WAVCIS,ioos:station:WAVCIS:CSI15:1,2010-02-09T11:00:00Z,28.8332,-90.8320,18.44,11111222 
WAVCIS,ioos:station:WAVCIS:CSI15:1,2010-02-09T12:00:00Z,28.8332,-90.8320,17.75,11111222 
WAVCIS,ioos:station:WAVCIS:CSI15:1,2010-02-09T13:00:00Z,28.8332,-90.8320,15.91,11111222 
WAVCIS,ioos:station:WAVCIS:CSI15:1,2010-02-09T14:00:00Z,28.8332,-90.8320,14.46,11111222 
WAVCIS,ioos:station:WAVCIS:CSI15:1,2010-02-09T15:00:00Z,28.8332,-90.8320,13.46,11111222 
WAVCIS,ioos:station:WAVCIS:CSI15:1,2010-02-09T16:00:00Z,28.8332,-90.8320,12.84,11111222 
WAVCIS,ioos:station:WAVCIS:CSI15:1,2010-02-09T17:00:00Z,28.8332,-90.8320,12.59,11111222 
WAVCIS,ioos:station:WAVCIS:CSI15:1,2010-02-09T18:00:00Z,28.8332,-90.8320,12.45,11111222 
WAVCIS,ioos:station:WAVCIS:CSI15:1,2010-02-09T19:00:00Z,28.8332,-90.8320,12.04,11111222 
WAVCIS,ioos:station:WAVCIS:CSI15:1,2010-02-09T20:00:00Z,28.8332,-90.8320,12.16,11111222 
WAVCIS,ioos:station:WAVCIS:CSI15:1,2010-02-09T21:00:00Z,28.8332,-90.8320,12.72,11111222 
WAVCIS,ioos:station:WAVCIS:CSI15:1,2010-02-09T22:00:00Z,28.8332,-90.8320,12.92,11111222 
WAVCIS,ioos:station:WAVCIS:CSI15:1,2010-02-09T23:00:00Z,28.8332,-90.8320,12.83,11111222 
WAVCIS,ioos:station:WAVCIS:CSI15:1,2010-02-10T00:00:00Z,28.8332,-90.8320,12.83,11111222 
WAVCIS,ioos:station:WAVCIS:CSI15:1,2010-02-10T01:00:00Z,28.8332,-90.8320,13.1,11111222 
WAVCIS,ioos:station:WAVCIS:CSI15:1,2010-02-10T02:00:00Z,28.8332,-90.8320,12.99,11111222 
WAVCIS,ioos:station:WAVCIS:CSI15:1,2010-02-10T03:00:00Z,28.8332,-90.8320,12.45,11111222 
WAVCIS,ioos:station:WAVCIS:CSI15:1,2010-02-10T04:00:00Z,28.8332,-90.8320,12.06,11111222 
WAVCIS,ioos:station:WAVCIS:CSI15:1,2010-02-10T05:00:00Z,28.8332,-90.8320,11.4,11111222 
WAVCIS,ioos:station:WAVCIS:CSI15:1,2010-02-10T06:00:00Z,28.8332,-90.8320,10.9,11111222 
WAVCIS,ioos:station:WAVCIS:CSI15:1,2010-02-10T07:00:00Z,28.8332,-90.8320,10.85,11111222 
WAVCIS,ioos:station:WAVCIS:CSI15:1,2010-02-10T08:00:00Z,28.8332,-90.8320,10.18,11111222 
WAVCIS,ioos:station:WAVCIS:CSI15:1,2010-02-10T09:00:00Z,28.8332,-90.8320,9.6,11111222 
WAVCIS,ioos:station:WAVCIS:CSI15:1,2010-02-10T10:00:00Z,28.8332,-90.8320,9.19,11111222 
WAVCIS,ioos:station:WAVCIS:CSI15:1,2010-02-10T11:00:00Z,28.8332,-90.8320,8.69,11111222 
WAVCIS,ioos:station:WAVCIS:CSI15:1,2010-02-10T12:00:00Z,28.8332,-90.8320,8.06,11111222 
WAVCIS,ioos:station:WAVCIS:CSI15:1,2010-02-10T13:00:00Z,28.8332,-90.8320,7.73,11111222 
WAVCIS,ioos:station:WAVCIS:CSI15:1,2010-02-10T14:00:00Z,28.8332,-90.8320,7.51,11111222 
WAVCIS,ioos:station:WAVCIS:CSI15:1,2010-02-10T15:00:00Z,28.8332,-90.8320,7.52,11111222 
WAVCIS,ioos:station:WAVCIS:CSI15:1,2010-02-10T16:00:00Z,28.8332,-90.8320,7.58,11111222 
WAVCIS,ioos:station:WAVCIS:CSI15:1,2010-02-10T17:00:00Z,28.8332,-90.8320,7.82,11111222 
WAVCIS,ioos:station:WAVCIS:CSI15:1,2010-02-10T18:00:00Z,28.8332,-90.8320,8.25,11111222 
WAVCIS,ioos:station:WAVCIS:CSI15:1,2010-02-10T19:00:00Z,28.8332,-90.8320,9.05,11111222 
WAVCIS,ioos:station:WAVCIS:CSI15:1,2010-02-10T20:00:00Z,28.8332,-90.8320,9.94,11111222 
WAVCIS,ioos:station:WAVCIS:CSI15:1,2010-02-10T21:00:00Z,28.8332,-90.8320,10.7,11111222 
WAVCIS,ioos:station:WAVCIS:CSI15:1,2010-02-10T22:00:00Z,28.8332,-90.8320,11.43,11111222 
WAVCIS,ioos:station:WAVCIS:CSI15:1,2010-02-10T23:00:00Z,28.8332,-90.8320,12.04,11111222 
WAVCIS,ioos:station:WAVCIS:CSI15:1,2010-02-11T00:00:00Z,28.8332,-90.8320,12.44,11111222 
WAVCIS,ioos:station:WAVCIS:CSI15:1,2010-02-11T01:00:00Z,28.8332,-90.8320,12.62,11111222 
WAVCIS,ioos:station:WAVCIS:CSI15:1,2010-02-11T02:00:00Z,28.8332,-90.8320,12.51,11111222 
WAVCIS,ioos:station:WAVCIS:CSI15:1,2010-02-11T03:00:00Z,28.8332,-90.8320,12.47,11111222 
WAVCIS,ioos:station:WAVCIS:CSI15:1,2010-02-11T04:00:00Z,28.8332,-90.8320,12.55,11111222 
WAVCIS,ioos:station:WAVCIS:CSI15:1,2010-02-11T05:00:00Z,28.8332,-90.8320,12.46,11111222 
WAVCIS,ioos:station:WAVCIS:CSI15:1,2010-02-11T06:00:00Z,28.8332,-90.8320,12.24,11111222 
WAVCIS,ioos:station:WAVCIS:CSI15:1,2010-02-11T07:00:00Z,28.8332,-90.8320,12.05,11111222 
WAVCIS,ioos:station:WAVCIS:CSI15:1,2010-02-11T08:00:00Z,28.8332,-90.8320,11.81,11111222 
WAVCIS,ioos:station:WAVCIS:CSI15:1,2010-02-11T09:00:00Z,28.8332,-90.8320,11.72,11111222 
WAVCIS,ioos:station:WAVCIS:CSI15:1,2010-02-11T10:00:00Z,28.8332,-90.8320,11.67,11111222 
WAVCIS,ioos:station:WAVCIS:CSI15:1,2010-02-11T11:00:00Z,28.8332,-90.8320,11.77,11111222 
WAVCIS,ioos:station:WAVCIS:CSI15:1,2010-02-11T12:00:00Z,28.8332,-90.8320,11.65,11111222 
WAVCIS,ioos:station:WAVCIS:CSI15:1,2010-02-11T13:00:00Z,28.8332,-90.8320,11.37,11111222 
WAVCIS,ioos:station:WAVCIS:CSI15:1,2010-02-11T14:00:00Z,28.8332,-90.8320,11.26,11111222 
WAVCIS,ioos:station:WAVCIS:CSI15:1,2010-02-11T15:00:00Z,28.8332,-90.8320,11.67,11111222 
WAVCIS,ioos:station:WAVCIS:CSI15:1,2010-02-11T16:00:00Z,28.8332,-90.8320,12.29,11111222 
WAVCIS,ioos:station:WAVCIS:CSI15:1,2010-02-11T17:00:00Z,28.8332,-90.8320,12.44,11111222 
WAVCIS,ioos:station:WAVCIS:CSI15:1,2010-02-11T18:00:00Z,28.8332,-90.8320,12.39,11111222 
WAVCIS,ioos:station:WAVCIS:CSI15:1,2010-02-11T19:00:00Z,28.8332,-90.8320,12.04,11111222 
WAVCIS,ioos:station:WAVCIS:CSI15:1,2010-02-11T20:00:00Z,28.8332,-90.8320,12.06,11111222 
WAVCIS,ioos:station:WAVCIS:CSI15:1,2010-02-11T21:00:00Z,28.8332,-90.8320,12.19,11111222 
WAVCIS,ioos:station:WAVCIS:CSI15:1,2010-02-11T22:00:00Z,28.8332,-90.8320,12.18,11111222 
WAVCIS,ioos:station:WAVCIS:CSI15:1,2010-02-11T23:00:00Z,28.8332,-90.8320,12.41,11111222 
WAVCIS,ioos:station:WAVCIS:CSI15:1,2010-02-12T00:00:00Z,28.8332,-90.8320,12.38,11111222 
WAVCIS,ioos:station:WAVCIS:CSI15:1,2010-02-12T01:00:00Z,28.8332,-90.8320,12.45,11111222 
WAVCIS,ioos:station:WAVCIS:CSI15:1,2010-02-12T02:00:00Z,28.8332,-90.8320,12.9,11111222 
WAVCIS,ioos:station:WAVCIS:CSI15:1,2010-02-12T03:00:00Z,28.8332,-90.8320,13.05,11111222 
WAVCIS,ioos:station:WAVCIS:CSI15:1,2010-02-12T04:00:00Z,28.8332,-90.8320,12.5,11111222 